Home   Weather   Freising   Past weeks

Flag for Germany Past Weather in Freising, Bavaria, Germany — Yesterday and Last 2 Weeks

45 °F

Scattered clouds.

Feels Like: 42 °F
Forecast: 32 / 49 °F
Wind: 5 mph from Northwest

Location: Munich / Franz Josef Strauss Airport

Current Time: Oct 21, 2016 at 1:14:47 PM

Latest Report: Oct 21, 2016 at 12:50 PM

Visibility: N/A

Pressure: 29.95 "Hg

Humidity: 81%

Dew Point: 39 °F

Location of FreisingLocation

Past Weather in Freising — Graph


Freising Temperature Yesterday

Maximum temperature yesterday: 54 °F (at 1:50 PM)
Minimum temperature yesterday: 41 °F (at 11:20 PM)
Average temperature yesterday: 47 °F

High & Low Weather Summary for the Past Weeks

High66 °F (Oct 16, 3:50 PM)100% (Oct 6, 3:20 PM)30.24 "Hg (Oct 6, 3:20 PM)
Low30 °F (Oct 10, 4:50 AM)47% (Oct 9, 3:20 PM)29.65 "Hg (Oct 14, 11:20 PM)
Average46 °F90%30.06 "Hg
* Reported Oct 6 11:20 AM — Oct 21 11:50 AM, Freising, Weather by CustomWeather, © 2016

Note: Actual official high and low records may vary slightly from our data, if they occured in-between our weather recording intervals... More about our weather records


Freising Weather History for the Previous 24 Hours

Scroll right to see more
Time TempWeatherWind HumidityBarometerVisibility
11:50 AM
Fri, Oct 21
45 °FBroken clouds.6 mph81%29.95 "HgN/A
11:20 AM45 °FBroken clouds.6 mph81%29.95 "HgN/A
10:50 AM43 °FBroken clouds.6 mph87%29.95 "HgN/A
10:20 AM43 °FBroken clouds.5 mph93%29.95 "HgN/A
9:50 AM43 °FScattered showers. Broken clouds.6 mph87%29.95 "HgN/A
9:20 AM43 °FSprinkles. Partly sunny.8 mph93%29.95 "HgN/A
8:50 AM43 °FSprinkles. Partly sunny.8 mph100%29.92 "HgN/A
8:20 AM45 °FSprinkles. Broken clouds.9 mph93%29.92 "HgN/A
7:50 AM45 °FPartly sunny.13 mph93%29.89 "HgN/A
7:20 AM43 °FLight rain. Passing clouds.12 mph100%29.89 "HgN/A
6:50 AM43 °FLight rain. Passing clouds.8 mph93%29.89 "HgN/A
6:20 AM41 °FLight rain. Passing clouds.8 mph100%29.89 "HgN/A
5:50 AM41 °FLight rain. Passing clouds.5 mph100%29.89 "HgN/A
5:20 AM41 °FLight rain. Passing clouds.6 mph93%29.89 "HgN/A
4:50 AM39 °FLight rain. Partly cloudy.5 mph93%29.89 "HgN/A
4:20 AM39 °FPartly cloudy.5 mph93%29.89 "HgN/A
3:50 AM39 °FClear.7 mph93%29.89 "Hg10 mi
3:20 AM39 °FClear.7 mph93%29.92 "Hg10 mi
2:50 AM39 °FClear.7 mph93%29.92 "Hg10 mi
2:20 AM39 °FClear.5 mph93%29.92 "Hg10 mi
1:50 AM41 °FClear.7 mph87%29.92 "Hg10 mi
1:20 AM41 °FClear.7 mph87%29.92 "Hg10 mi
12:50 AM39 °FClear.5 mph87%29.92 "Hg10 mi
12:20 AM39 °FPassing clouds.8 mph87%29.92 "HgN/A
11:50 PM
Thu, Oct 20
41 °FClear.8 mph81%29.92 "Hg10 mi
11:20 PM41 °FClear.7 mph81%29.92 "Hg10 mi
10:50 PM43 °FClear.7 mph81%29.92 "Hg10 mi
10:20 PM45 °FClear.10 mph76%29.92 "Hg10 mi
9:50 PM46 °FClear.8 mph71%29.92 "Hg10 mi
9:20 PM48 °FClear.8 mph71%29.92 "Hg10 mi
8:50 PM48 °FClear.9 mph71%29.92 "Hg10 mi
8:20 PM48 °FClear.12 mph66%29.92 "Hg10 mi
7:50 PM48 °FClear.12 mph66%29.92 "Hg10 mi
7:20 PM46 °FClear.13 mph71%29.92 "Hg10 mi
6:50 PM48 °FClear.10 mph66%29.92 "Hg10 mi
6:20 PM50 °FPassing clouds.12 mph67%29.92 "HgN/A
5:50 PM50 °FScattered clouds.12 mph67%29.92 "HgN/A
5:20 PM52 °FScattered clouds.14 mph62%29.92 "HgN/A
4:50 PM52 °FScattered clouds.20 mph58%29.92 "HgN/A
4:20 PM52 °FBroken clouds.15 mph58%29.92 "HgN/A
3:50 PM52 °FBroken clouds.14 mph62%29.92 "HgN/A
3:20 PM52 °FScattered clouds.12 mph62%29.92 "HgN/A
2:50 PM52 °FBroken clouds.15 mph58%29.92 "HgN/A
2:20 PM52 °FBroken clouds.15 mph62%29.95 "HgN/A
1:50 PM54 °FBroken clouds.16 mph63%29.95 "HgN/A
1:20 PM52 °FBroken clouds.15 mph62%29.95 "HgN/A
Weather by CustomWeather, © 2016

See weather overviewHow to use our weather pages